Topeka, KS

2:52 PM CDT on May 29, 2017 (GMT -0500)
Billard Municipal

Weather History for KTOP - October, 2012

Change the Weather History Date:

Friday, October 26, 2012

  Actual Average Record
Temperature  
Mean Temperature 40 °F 53 °F  
Max Temperature 48 °F 65 °F 88 °F (2014)
Min Temperature 31 °F 42 °F 22 °F (1887)
Degree Days  
Heating Degree Days 25 12  
Month to date heating degree days 219 223  
Since 1 July heating degree days 272 290  
Cooling Degree Days 0 0  
Month to date cooling degree days 40 25  
Year to date cooling degree days 1974 1418  
Moisture  
Dew Point 26 °F    
Average Humidity 59    
Maximum Humidity 75    
Minimum Humidity 42    
Precipitation  
Precipitation 0.00 in 0.09 in 2.59 in (1918)
Month to date precipitation 1.42 2.62  
Year to date precipitation 21.00 32.85  
Snow  
Snow 0.00 in 0.00 in T in (1997)
Month to date snowfall 0.0 0.2  
Year to date snowfall 3.0 11.5  
Since 1 July snowfall 0.0 0.2  
Snow Depth 0.00 in    
Sea Level Pressure  
Sea Level Pressure 30.45 in    
Wind  
Wind Speed 9 mph (NNW)    
Max Wind Speed 18 mph    
Max Gust Speed 25 mph    
Visibility 10 miles    
Events      
T = Trace of Precipitation, MM = Missing Value Source: NWS Daily Summary

Daily Weather History Graph

Daily Weather History Graph

Search for Another Location

Airport or City:

Trip Planner

Search our weather history database for the weather conditions in past years. The results will help you decide how hot, cold, wet, or windy it might be!

Date:

Astronomy

Oct. 26, 2012 Rise Set
Actual Time 7:44 AM CDT 6:28 PM CDT
Civil Twilight 7:16 AM CDT 6:55 PM CDT
Nautical Twilight 6:45 AM CDT 7:26 PM CDT
Astronomical Twilight 6:14 AM CDT 7:57 PM CDT
Moon 4:43 PM CDT (10/26) 4:42 AM CDT (10/26)
Length of Visible Light 11h 38m
Length of Day
10h 44m
Waxing Gibbous, 91% of the Moon is Illuminated
Oct 26
Waxing Gibbous
Oct 29
Full
Nov 6
Last Quarter
Nov 13
New
Nov 20
First Quarter

Hourly Weather History & Observations

Time (CDT) Temp. Windchill Dew Point Humidity Pressure Visibility Wind Dir Wind Speed Gust Speed Precip Events Conditions
1:53 AM 37.9 °F 30.9 °F 27.0 °F 65% 30.37 in 10.0 mi North 10.4 mph - N/A   Overcast
2:53 AM 37.9 °F 29.6 °F 27.0 °F 65% 30.39 in 10.0 mi North 13.8 mph 20.7 mph N/A   Overcast
3:53 AM 37.9 °F 29.6 °F 26.1 °F 62% 30.41 in 10.0 mi North 13.8 mph - N/A   Overcast
4:32 AM 35.6 °F 28.0 °F 26.6 °F 70% 30.40 in 10.0 mi North 10.4 mph - N/A   Scattered Clouds
4:53 AM 35.1 °F 29.3 °F 26.1 °F 70% 30.41 in 10.0 mi NNW 6.9 mph - N/A   Clear
5:53 AM 33.1 °F 27.7 °F 26.1 °F 75% 30.42 in 10.0 mi NNW 5.8 mph - N/A   Mostly Cloudy
6:53 AM 33.1 °F 27.7 °F 25.0 °F 72% 30.44 in 10.0 mi NNW 5.8 mph - N/A   Scattered Clouds
7:53 AM 32.0 °F 24.8 °F 25.0 °F 75% 30.46 in 10.0 mi NNW 8.1 mph - N/A   Clear
8:53 AM 34.0 °F 28.0 °F 27.0 °F 75% 30.50 in 10.0 mi North 6.9 mph - N/A   Clear
9:53 AM 37.4 °F 31.4 °F 28.4 °F 70% 30.50 in 10.0 mi NNW 8.1 mph - N/A   Clear
10:53 AM 44.1 °F 37.7 °F 27.0 °F 51% 30.52 in 10.0 mi North 12.7 mph 21.9 mph N/A   Scattered Clouds
11:53 AM 43.0 °F 36.4 °F 26.1 °F 51% 30.53 in 10.0 mi NNW 12.7 mph 23.0 mph N/A   Mostly Cloudy
12:53 PM 45.0 °F 38.5 °F 26.1 °F 48% 30.51 in 10.0 mi North 13.8 mph 18.4 mph N/A   Scattered Clouds
1:53 PM 45.0 °F 38.9 °F 26.1 °F 48% 30.49 in 10.0 mi NNW 12.7 mph - N/A   Clear
2:53 PM 45.0 °F 40.6 °F 26.1 °F 48% 30.46 in 10.0 mi North 8.1 mph - N/A   Clear
3:53 PM 48.0 °F - 26.1 °F 42% 30.44 in 10.0 mi North 15.0 mph 20.7 mph N/A   Clear
4:53 PM 46.9 °F - 26.1 °F 44% 30.43 in 10.0 mi NNW 13.8 mph 19.6 mph N/A   Clear
5:53 PM 44.1 °F 38.1 °F 26.1 °F 49% 30.43 in 10.0 mi NNW 11.5 mph - N/A   Clear
6:53 PM 41.0 °F 37.1 °F 25.0 °F 53% 30.44 in 10.0 mi NNW 5.8 mph - N/A   Clear
7:53 PM 37.9 °F - 25.0 °F 60% 30.46 in 10.0 mi Calm Calm - N/A   Clear
8:53 PM 36.0 °F - 26.1 °F 67% 30.46 in 10.0 mi Calm Calm - N/A   Clear
9:53 PM 33.1 °F 30.0 °F 27.0 °F 78% 30.46 in 10.0 mi NW 3.5 mph - N/A   Clear
10:53 PM 33.1 °F 28.7 °F 25.0 °F 72% 30.45 in 10.0 mi North 4.6 mph - N/A   Clear
11:53 PM 32.0 °F 26.4 °F 25.0 °F 75% 30.45 in 10.0 mi North 5.8 mph - N/A   Clear